Weather History for Oakes, ND

Change the Weather History Date:

Sunday, February 23, 2014

  Actual Average (KABR) Record (KABR)
Temperature  
Mean Temperature 8 °F 21 °F  
Max Temperature 15 °F 31 °F 60 °F (1976)
Min Temperature 1 °F 11 °F -25 °F (1910)
Degree Days  
Heating Degree Days 57 44  
Month to date heating degree days 1113  
Since 1 July heating degree days 6247  
Cooling Degree Days 0 0  
Month to date cooling degree days 0  
Year to date cooling degree days 0  
Moisture  
Dew Point 1 °F    
Average Humidity 73    
Maximum Humidity 85    
Minimum Humidity 62    
Precipitation  
Precipitation 0.00 in 0.02 in 0.78 in (1977)
Month to date precipitation 0.42  
Year to date precipitation 0.89  
Snow  
Snow 0.00 in - - ()
Month to date snowfall  
Since 1 July snowfall  
Snow Depth -    
Sea Level Pressure  
Sea Level Pressure 30.28 in    
Wind  
Wind Speed 13 mph (WNW)    
Max Wind Speed 23 mph    
Max Gust Speed 29 mph    
Visibility 10 miles    
Events      
T = Trace of Precipitation, MM = Missing Value Source: NWS Daily Summary

Daily Weather History Graph

Daily Weather History Graph

Search for Another Location

Airport:

Trip Planner

Search our weather history database for the weather conditions in past years. The results will help you decide how hot, cold, wet, or windy it might be!

Date:

Astronomy

Feb. 23, 2014 Rise Set
Actual Time 7:21 AM CST 6:10 PM CST
Civil Twilight 6:51 AM CST 6:40 PM CST
Nautical Twilight 6:16 AM CST 7:15 PM CST
Astronomical Twilight 5:42 AM CST 7:50 PM CST
Moon 2:31 AM CST (2/23) 12:03 PM CST (2/23)
Length of Visible Light 11h 48m
Length of Day
10h 48m
Last Quarter, 38% of the Moon is Illuminated
Feb 23
Last Quarter
Mar 1
New
Mar 8
First Quarter
Mar 16
Full
Mar 23
Last Quarter

Hourly Weather History & Observations

Time (CST) Temp. Windchill Dew Point Humidity Pressure Visibility Wind Dir Wind Speed Gust Speed Precip Events Conditions
12:15 AM 6.8 °F -6.9 °F 1.4 °F 79% 30.18 in 10.0 mi WNW 9.2 mph - N/A   Clear
12:35 AM 6.8 °F -8.6 °F 1.4 °F 79% 30.18 in 10.0 mi West 11.5 mph - N/A   Clear
12:55 AM 6.8 °F -10.0 °F -0.4 °F 72% 30.19 in 10.0 mi WNW 13.8 mph - N/A   Clear
1:15 AM 5.0 °F -12.3 °F -0.4 °F 78% 30.19 in 10.0 mi WNW 13.8 mph - N/A   Clear
1:35 AM 5.0 °F -11.6 °F -0.4 °F 78% 30.19 in 10.0 mi WNW 12.7 mph - N/A   Clear
1:55 AM 5.0 °F -12.3 °F -0.4 °F 78% 30.19 in 10.0 mi WNW 13.8 mph - N/A   Clear
2:15 AM 5.0 °F -11.6 °F -0.4 °F 78% 30.19 in 10.0 mi WNW 12.7 mph - N/A   Clear
2:35 AM 5.0 °F -11.6 °F -0.4 °F 78% 30.20 in 10.0 mi WNW 12.7 mph - N/A   Clear
2:55 AM 5.0 °F -10.8 °F -0.4 °F 78% 30.20 in 10.0 mi WNW 11.5 mph 20.7 mph N/A   Clear
3:15 AM 5.0 °F -13.0 °F -0.4 °F 78% 30.20 in 10.0 mi WNW 15.0 mph - N/A   Clear
3:35 AM 5.0 °F -12.3 °F -0.4 °F 78% 30.20 in 10.0 mi WNW 13.8 mph - N/A   Clear
3:55 AM 5.0 °F -10.8 °F -0.4 °F 78% 30.20 in 10.0 mi WNW 11.5 mph - N/A   Clear
4:15 AM 3.2 °F -13.1 °F -0.4 °F 85% 30.21 in 10.0 mi WNW 11.5 mph 16.1 mph N/A   Clear
4:35 AM 3.2 °F -11.3 °F -0.4 °F 85% 30.21 in 10.0 mi WNW 9.2 mph - N/A   Clear
4:55 AM 3.2 °F -13.9 °F -0.4 °F 85% 30.22 in 10.0 mi WNW 12.7 mph - N/A   Clear
5:15 AM 3.2 °F -13.1 °F -0.4 °F 85% 30.22 in 10.0 mi WNW 11.5 mph - N/A   Clear
5:35 AM 5.0 °F -10.8 °F -0.4 °F 78% 30.23 in 10.0 mi WNW 11.5 mph 17.3 mph N/A   Clear
5:55 AM 3.2 °F -12.2 °F -0.4 °F 85% 30.23 in 10.0 mi WNW 10.4 mph - N/A   Clear
6:15 AM 3.2 °F -13.1 °F -0.4 °F 85% 30.24 in 10.0 mi WNW 11.5 mph - N/A   Clear
6:35 AM 3.2 °F -12.2 °F -0.4 °F 85% 30.24 in 10.0 mi WNW 10.4 mph - N/A   Clear
6:55 AM 5.0 °F -10.0 °F -0.4 °F 78% 30.24 in 10.0 mi WNW 10.4 mph - N/A   Clear
7:15 AM 5.0 °F -11.6 °F -0.4 °F 78% 30.25 in 10.0 mi WNW 12.7 mph 17.3 mph N/A   Clear
7:35 AM 5.0 °F -11.6 °F -0.4 °F 78% 30.25 in 10.0 mi WNW 12.7 mph - N/A   Clear
7:55 AM 5.0 °F -11.6 °F -0.4 °F 78% 30.26 in 10.0 mi WNW 12.7 mph 20.7 mph N/A   Clear
8:15 AM 5.0 °F -9.1 °F -0.4 °F 78% 30.27 in 10.0 mi WNW 9.2 mph - N/A   Clear
8:35 AM 5.0 °F -10.0 °F -0.4 °F 78% 30.27 in 10.0 mi WNW 10.4 mph - N/A   Clear
8:55 AM 6.8 °F -9.3 °F 1.4 °F 79% 30.28 in 10.0 mi WNW 12.7 mph 16.1 mph N/A   Mostly Cloudy
9:15 AM 8.6 °F -8.3 °F 1.4 °F 73% 30.28 in 10.0 mi WNW 15.0 mph 20.7 mph N/A   Scattered Clouds
9:35 AM 8.6 °F -10.0 °F 1.4 °F 73% 30.28 in 10.0 mi NW 18.4 mph 24.2 mph N/A   Mostly Cloudy
9:55 AM 10.4 °F -6.6 °F 1.4 °F 67% 30.28 in 10.0 mi NW 16.1 mph 21.9 mph N/A   Mostly Cloudy
10:15 AM 10.4 °F -8.2 °F 3.2 °F 73% 30.29 in 10.0 mi WNW 19.6 mph 24.2 mph N/A   Scattered Clouds
10:35 AM 12.2 °F -4.8 °F 3.2 °F 67% 30.29 in 10.0 mi NW 17.3 mph 25.3 mph N/A   Scattered Clouds
10:55 AM 14.0 °F -3.4 °F 3.2 °F 62% 30.29 in 10.0 mi NW 19.6 mph 25.3 mph N/A   Clear
11:15 AM 14.0 °F -3.0 °F 3.2 °F 62% 30.29 in 10.0 mi WNW 18.4 mph 25.3 mph N/A   Clear
11:35 AM 15.8 °F -2.3 °F 5.0 °F 62% 30.30 in 10.0 mi WNW 23.0 mph 27.6 mph N/A   Scattered Clouds
11:55 AM 15.8 °F -1.9 °F 5.0 °F 62% 30.29 in 10.0 mi NW 21.9 mph 27.6 mph N/A   Partly Cloudy
12:15 PM 15.8 °F -1.5 °F 5.0 °F 62% 30.30 in 10.0 mi WNW 20.7 mph 26.5 mph N/A   Clear
12:35 PM 15.8 °F -2.3 °F 5.0 °F 62% 30.29 in 10.0 mi NW 23.0 mph 27.6 mph N/A   Clear
12:55 PM 15.8 °F -0.6 °F 5.0 °F 62% 30.29 in 10.0 mi WNW 18.4 mph 27.6 mph N/A   Clear
1:15 PM 15.8 °F -1.1 °F 5.0 °F 62% 30.29 in 10.0 mi NW 19.6 mph 27.6 mph N/A   Clear
1:35 PM 15.8 °F -1.9 °F 5.0 °F 62% 30.29 in 10.0 mi NW 21.9 mph 28.8 mph N/A   Clear
1:55 PM 15.8 °F -1.9 °F 5.0 °F 62% 30.29 in 10.0 mi WNW 21.9 mph 26.5 mph N/A   Clear
2:15 PM 15.8 °F -1.9 °F 5.0 °F 62% 30.29 in 10.0 mi NW 21.9 mph 25.3 mph N/A   Clear
2:35 PM 15.8 °F -1.1 °F 5.0 °F 62% 30.29 in 10.0 mi WNW 19.6 mph 27.6 mph N/A   Clear
2:55 PM 15.8 °F -0.6 °F 5.0 °F 62% 30.29 in 10.0 mi WNW 18.4 mph 25.3 mph N/A   Clear
3:15 PM 15.8 °F -1.1 °F 5.0 °F 62% 30.29 in 10.0 mi NW 19.6 mph 23.0 mph N/A   Clear
3:35 PM 15.8 °F -0.2 °F 5.0 °F 62% 30.29 in 10.0 mi WNW 17.3 mph 21.9 mph N/A   Clear
3:55 PM 15.8 °F -0.2 °F 5.0 °F 62% 30.29 in 10.0 mi NW 17.3 mph 27.6 mph N/A   Clear
4:15 PM 15.8 °F -1.5 °F 5.0 °F 62% 30.29 in 10.0 mi NW 20.7 mph 27.6 mph N/A   Clear
4:35 PM 14.0 °F -3.0 °F 5.0 °F 67% 30.29 in 10.0 mi WNW 18.4 mph 26.5 mph N/A   Clear
4:55 PM 14.0 °F -3.4 °F 5.0 °F 67% 30.30 in 10.0 mi NW 19.6 mph 25.3 mph N/A   Clear
5:15 PM 14.0 °F -3.4 °F 3.2 °F 62% 30.30 in 10.0 mi WNW 19.6 mph 24.2 mph N/A   Clear
5:35 PM 12.2 °F -4.8 °F 3.2 °F 67% 30.31 in 10.0 mi NW 17.3 mph 24.2 mph N/A   Clear
5:55 PM 10.4 °F -7.7 °F 1.4 °F 67% 30.31 in 10.0 mi NW 18.4 mph 23.0 mph N/A   Clear
6:15 PM 10.4 °F -5.4 °F 1.4 °F 67% 30.31 in 10.0 mi NW 13.8 mph - N/A   Clear
6:35 PM 10.4 °F -5.4 °F 1.4 °F 67% 30.31 in 10.0 mi WNW 13.8 mph 19.6 mph N/A   Clear
6:55 PM 8.6 °F -6.3 °F 1.4 °F 73% 30.32 in 10.0 mi WNW 11.5 mph 17.3 mph N/A   Clear
7:15 PM 8.6 °F -7.7 °F 1.4 °F 73% 30.33 in 10.0 mi WNW 13.8 mph 19.6 mph N/A   Clear
7:35 PM 8.6 °F -6.3 °F -0.4 °F 67% 30.33 in 10.0 mi WNW 11.5 mph - N/A   Clear
7:55 PM 6.8 °F -5.9 °F -0.4 °F 72% 30.34 in 10.0 mi WNW 8.1 mph - N/A   Clear
8:15 PM 6.8 °F -7.8 °F -0.4 °F 72% 30.34 in 10.0 mi WNW 10.4 mph - N/A   Clear
8:35 PM 6.8 °F -7.8 °F -0.4 °F 72% 30.34 in 10.0 mi WNW 10.4 mph - N/A   Clear
8:55 PM 5.0 °F -10.0 °F -0.4 °F 78% 30.34 in 10.0 mi WNW 10.4 mph - N/A   Clear
9:15 PM 5.0 °F -10.0 °F -0.4 °F 78% 30.34 in 10.0 mi NW 10.4 mph - N/A   Clear
9:35 PM 5.0 °F -10.8 °F -0.4 °F 78% 30.34 in 10.0 mi WNW 11.5 mph - N/A   Clear
9:55 PM 5.0 °F -10.8 °F -0.4 °F 78% 30.34 in 10.0 mi NW 11.5 mph 17.3 mph N/A   Clear
10:15 PM 3.2 °F -11.3 °F -0.4 °F 85% 30.35 in 10.0 mi WNW 9.2 mph - N/A   Clear
10:35 PM 3.2 °F -10.3 °F -2.2 °F 78% 30.34 in 10.0 mi WNW 8.1 mph - N/A   Clear
10:55 PM 1.4 °F -11.3 °F -2.2 °F 85% 30.34 in 10.0 mi WNW 6.9 mph - N/A   Clear
11:15 PM 1.4 °F -12.5 °F -2.2 °F 85% 30.34 in 10.0 mi NW 8.1 mph - N/A   Clear
11:35 PM 1.4 °F -13.5 °F -2.2 °F 85% 30.34 in 10.0 mi NW 9.2 mph - N/A   Clear
11:55 PM 1.4 °F -12.5 °F -4.0 °F 78% 30.34 in 10.0 mi NW 8.1 mph - N/A   Clear